sat.trackr.live / text

‹ back to catalog

ONEWEB-0166

NORAD 48065 · 2021-025Z

PAYLOAD ACTIVE UNKNOWN

§ Identity

Operator
Country
UK
Launch date
2021-03-25
Launch site
VOSTO
Launch vehicle
Mass (kg)
RCS (m²)

Purposes: comms

External: N2YO · Heavens-Above · Gunter

§ Orbital elements

Epoch: 2026-09-20T01:32:28.214880Z

Period
109.63 min
Inclination
87.8923°
Eccentricity
0.0001898
Mean motion
13.13469853 rev/d
Perigee alt
1,208.3 km
Apogee alt
1,211.2 km
Semi-major
7,587.9 km
B*
-7.9166e-4
RAAN
301.3303°
Arg perigee
96.6851°
Mean anomaly
263.4494°
Rev number
26,610

§ Raw data

ONEWEB-01661 48065U 21025Z   26263.06421545 -.00000276  00000+0 -79166-3 0  99972 48065  87.8923 301.3303 0001898  96.6851 263.4494 13.13469853266106

JSON: /api/v1/satellites/48065 · /tle

For live sub-satellite position, see the globe view (requires WebGL).

§ Visibility from observer

Set your observer location to see the next 7 days of passes ≥ 10°. The values pass through the URL so the page stays shareable.

No JS? Fill the form by hand. The geolocation button needs JavaScript.